This is the latest recevied weather packets stored in our database for station/object N1ORT. If no packets are shown the sender has not sent any weather packets the latest 10 day(s).
| Time | Temp. | Humidity | Pressure | Rain* | Wind** | Luminosity | Snow |
|---|---|---|---|---|---|---|---|
| 1777499275 | 8.33° C | 88% | 1012.2 hPa | 0 mm | - | 71 W/m² | - |
| 1777498973 | 8.89° C | 87% | 1012.2 hPa | 0 mm | - | 75 W/m² | - |
| 1777498668 | 8.89° C | 87% | 1012 hPa | 0 mm | - | 80 W/m² | - |
| 1777498364 | 8.89° C | 86% | 1012.2 hPa | 0 mm | - | 90 W/m² | - |
| 1777498062 | 8.89° C | 86% | 1012.3 hPa | 0 mm | - | 92 W/m² | - |
| 1777497758 | 8.89° C | 85% | 1012.4 hPa | 0 mm | - | 103 W/m² | - |
| 1777497455 | 8.89° C | 85% | 1012.4 hPa | 0 mm | - | 114 W/m² | - |
| 1777497151 | 8.89° C | 85% | 1012.1 hPa | 0 mm | - | 132 W/m² | - |
| 1777496848 | 9.44° C | 85% | 1012.2 hPa | 0 mm | - | 129 W/m² | - |
| 1777496545 | 9.44° C | 85% | 1012.4 hPa | 0 mm | - | 123 W/m² | - |
| 1777496241 | 9.44° C | 85% | 1012.4 hPa | 0 mm | - | 122 W/m² | - |
| 1777495937 | 9.44° C | 84% | 1012.5 hPa | 0 mm | - | 166 W/m² | - |
| 1777495633 | 9.44° C | 84% | 1012.2 hPa | 0 mm | - | 184 W/m² | - |
| 1777495329 | 9.44° C | 85% | 1012.5 hPa | 0 mm | - | 174 W/m² | - |
| 1777495026 | 9.44° C | 84% | 1012.6 hPa | 0 mm | - | 161 W/m² | - |
| 1777494724 | 10° C | 83% | 1012.7 hPa | 0 mm | - | 178 W/m² | - |
| 1777494421 | 10° C | 83% | 1012.8 hPa | 0 mm | - | 134 W/m² | - |
| 1777494117 | 10° C | 83% | 1012.9 hPa | 0 mm | - | 225 W/m² | - |
| 1777493814 | 10° C | 83% | 1012.7 hPa | 0 mm | - | 219 W/m² | - |
| 1777493513 | 10° C | 83% | 1012.6 hPa | 0 mm | - | 240 W/m² | - |
| 1777493209 | 10° C | 83% | 1012.8 hPa | 0 mm | - | 211 W/m² | - |
| 1777492905 | 10° C | 83% | 1012.9 hPa | 0 mm | - | 255 W/m² | - |
| 1777492602 | 9.44° C | 83% | 1013.1 hPa | 0 mm | - | 280 W/m² | - |
| 1777492297 | 10° C | 82% | 1013 hPa | 0 mm | - | 260 W/m² | - |
| 1777491995 | 10° C | 83% | 1013.2 hPa | 0 mm | - | 288 W/m² | - |
* Rain latest hour (hover to see other rain measurements)
** Current wind speed in m/s (hover to see current wind gust speed)